Location: Boston
(42.3580°N, 71.0600°W)
Time: 12:25:19
(UTC-04:00)

Hubble Space Telescope - Pass Details

Date: 07 October 2017
Orbit: 537 x 541 km, 28.5° (Epoch: 19 October)

Event Time Altitude Azimuth Distance (km) Brightness Sun altitude
Exits shadow 05:36:41 - 211° (SSW) 1,879 3.2 -14.0°
Reaches altitude 10° 05:37:26 10° 201° (SSW) 1,788 3.2 -13.9°
Maximum altitude 05:38:25 11° 187° (S) 1,741 3.2 -13.7°
Drops below altitude 10° 05:39:24 10° 173° (S) 1,787 3.5 -13.5°
Sets 05:43:25 0° 135° (SE) 2,678 5.0 -12.8°
